Flag for U.S.A. Weather past 2 weeks in Akron, Ohio, U.S.A.

Now
16 °F

Passing clouds.


Feels Like: 4 °F
Forecast: 16 / 29 °F
Wind: 9 mph from North

Location: Akron Fulton International Airport

Current Time: Mar 28, 2015 at 5:50:45 AM

Latest Report: Mar 28, 2015 at 4:54 AM


Visibility: 10 mi

Pressure: 30.11 "Hg

Humidity: 62%

Dew point: 5 °F

Location of AkronLocation

Historic Weather in Akron — Graph

°F

Akron temperature yesterday

Maximum temperature yesterday: 37 °F (at 12:54 AM)
Minimum temperature yesterday: 19 °F (at 11:54 PM)
Average temperature yesterday: 29 °F

Past Weeks' High & Low Weather Summary

 TemperatureHumidityPressure
High65 °F (Mar 16, 1:54 PM)97% (Mar 14, 4:54 AM)30.37 "Hg (Mar 14, 4:54 AM)
Low16 °F (Mar 28, 4:54 AM)23% (Mar 24, 4:54 PM)29.70 "Hg (Mar 17, 3:54 AM)
Average39 °F62%30.10 "Hg
* Reported Mar 13 4:54 AM — Mar 28 4:54 AM, Akron, Weather by CustomWeather, © 2015

Note: Actual official high and low records may vary slightly from our data, if they occured in-between our weather recording intervals... More about our weather records

Advertising

Akron weather history for previous 24 hours

 ConditionsComfort  
Time TempWeatherWind HumidityBarometerVisibility
4:54 AM
Sat, Mar 28
16 °FPassing clouds.9 mph62%30.11 "Hg10 mi
3:54 AM17 °FPassing clouds.16 mph56%30.10 "Hg10 mi
2:54 AM17 °FMostly cloudy.10 mph62%30.10 "Hg10 mi
1:54 AM17 °FOvercast.9 mph64%30.11 "Hg10 mi
12:54 AM18 °FPassing clouds.12 mph62%30.10 "Hg10 mi
11:54 PM
Fri, Mar 27
19 °FPassing clouds.7 mph65%30.11 "Hg10 mi
10:54 PM20 °FMostly cloudy.9 mph74%30.10 "Hg10 mi
9:54 PM21 °FOvercast.13 mph68%30.08 "Hg10 mi
8:54 PM22 °FLight snow. Mostly cloudy.12 mph72%30.05 "Hg8 mi
7:54 PM24 °FLight snow. Mostly cloudy.13 mph71%30.02 "Hg4 mi
6:54 PM25 °FLight snow. Cloudy.17 mph72%30.00 "Hg7 mi
6:00 PM26 °FLight snow. Mostly cloudy.12 mph74%29.95 "Hg3 mi
5:04 PM27 °FLight snow. Cloudy.17 mph72%29.94 "Hg3 mi
4:54 PM28 °FMore clouds than sun.12 mph69%29.96 "Hg9 mi
3:54 PM28 °FMore clouds than sun.13 mph66%29.96 "Hg9 mi
2:54 PM28 °FLight snow. Cloudy.15 mph69%29.96 "Hg6 mi
1:54 PM27 °FLight snow. Mostly cloudy.10 mph78%29.97 "Hg1 mi
12:54 PM29 °FLight snow. Cloudy.9 mph75%29.96 "Hg2 mi
11:54 AM29 °FMostly cloudy.12 mph69%29.96 "Hg10 mi
11:01 AM28 °FLight snow. Mostly cloudy.14 mph78%29.92 "Hg3 mi
9:54 AM29 °FLight snow. Overcast.12 mph79%29.94 "Hg2 mi
8:54 AM30 °FLight snow. Mostly cloudy.10 mph75%29.93 "Hg4 mi
7:54 AM31 °FMostly cloudy.12 mph79%29.91 "Hg8 mi
6:54 AM33 °FMostly cloudy.12 mph75%29.89 "Hg10 mi
5:54 AM34 °FOvercast.9 mph70%29.89 "Hg10 mi
5:02 AM34 °FOvercast.9 mph70%29.87 "Hg10 mi
Weather by CustomWeather, © 2015

See weather overviewHow to use our weather pages